Tracking 30995 objects as of 5-Jul-2025
HD Live streaming from Space Station
objects crossing your sky now

DMSP 5D-2 F13 DEB

Track DMSP 5D-2 F13 DEB now!
10-day predictions


NORAD ID: 40580
Int'l Code: 1995-015EP
Perigee: 787.9 km
Apogee: 805.9 km
Inclination: 98.9 °
Period: 100.7 minutes
Semi major axis: 7167 km
RCS: Unknown
Launch date: March 24, 1995
Source: United States (US)
Launch site: AIR FORCE WESTERN TEST RANGE (AFWTR)

Note: This is SATELLITE DEBRIS
Your satellite tracking list
Your tracking list is empty




NASA's NSSDC Master Catalog

Two Line Element Set (TLE):
1 40580U 95015EP  25184.01905217  .00003310  00000-0  12842-2 0  9998
2 40580  98.8526 206.7369 0012586 217.1529 142.8782 14.30594068529883
Source of the keplerian elements: AFSPC